Location: Unspecified
(0.0000°N, 0.0000°E)
Time: 23:59:53
(UTC+00:00)

Envisat - Pass Details

Date: 19 July 2019
Orbit: 764 x 766 km, 98.1° (Epoch: 18 November)

Event Time Altitude Azimuth Distance (km) Brightness Sun altitude
Rises 19:48:56 0° 201° (SSW) 3,230 6.2 -23.9°
Reaches altitude 10° 19:52:16 10° 224° (SW) 2,301 5.7 -24.6°
Maximum altitude 19:55:00 15° 257° (WSW) 1,988 5.8 -25.3°
Drops below altitude 10° 19:57:45 10° 291° (WNW) 2,295 6.5 -25.9°
Sets 20:01:04 0° 314° (NW) 3,217 7.3 -26.7°
